This demonstration page uses our WeatherBlox Daily Observations layout. Learn more.

Left ArrowRight Arrow

Hourly Observations for September 22, 2018

Temp ( °F °C ) Dew Point ( °F °C ) Humidity (%) Winds ( mph kmh ) Pressure ( in mb ) Visibility ( mi km ) Precip ( " mm )
12:53 am 00:53 Clear 70 21.1 56 13.3 61 61 N 7 11 30.14 1021 10 16 0.00 0.00
1:53 am 01:53 Clear 67 19.4 55 12.8 66 66 NNE 10 17 30.15 1021 10 16 0.00 0.00
2:53 am 02:53 Clear 65 18.3 55 12.8 70 70 N 10 17 30.17 1022 10 16 0.00 0.00
3:53 am 03:53 Clear 64 17.8 53 11.7 68 68 N 7 11 30.18 1022 10 16 0.00 0.00
4:53 am 04:53 Clear 63 17.2 52 11.1 68 68 NNE 9 15 30.18 1022 10 16 0.00 0.00
5:53 am 05:53 Clear 62 16.7 52 11.1 70 70 NNE 8 13 30.19 1023 10 16 0.00 0.00
6:53 am 06:53 Clear 61 16.1 53 11.7 75 75 NNE 6 9 30.21 1023 10 16 0.00 0.00
7:53 am 07:53 Sunny 61 16.1 53 11.7 75 75 NNE 5 7 30.23 1024 10 16 0.00 0.00
8:53 am 08:53 Sunny 61 16.1 53 11.7 75 75 N 7 11 30.23 1024 10 16 0.00 0.00
9:53 am 09:53 Sunny 62 16.7 53 11.7 73 73 NE 9 15 30.23 1024 10 16 0.00 0.00
10:53 am 10:53 Sunny 62 16.7 53 11.7 73 73 NE 10 17 30.24 1024 10 16 0.00 0.00
11:53 am 11:53 Sunny 63 17.2 53 11.7 70 70 ENE 6 9 30.26 1025 10 16 0.00 0.00
12:53 pm 12:53 Sunny 63 17.2 53 11.7 70 70 NE 7 11 30.24 1024 10 16 0.00 0.00
1:53 pm 13:53 Partly Cloudy 63 17.2 54 12.2 73 73 NE 7 11 30.23 1024 10 16 0.00 0.00
2:53 pm 14:53 Cloudy with Light Rain 63 17.2 57 13.9 81 81 NNE 3 6 30.21 1023 10 16 0.00 0.03
3:53 pm 15:53 Cloudy with Light Rain 62 16.7 57 13.9 84 84 NE 6 9 30.20 1023 9 14 0.04 1.02
4:53 pm 16:53 Cloudy with Light Rain 61 16.1 58 14.4 90 90 Calm 30.21 1023 7 11 0.04 1.02
5:45 pm 17:45 Mostly Cloudy with Light Rain 61 16.1 58 14.4 90 90 NE 5 7 30.18 1022 9 14 0.04 1.02
5:53 pm 17:53 Mostly Cloudy with Light Rain 61 16.1 58 14.4 90 90 NE 6 9 30.19 1022 9 14 0.05 1.27
6:05 pm 18:05 Cloudy with Light Rain 60 15.6 58 14.4 93 93 E 8 13 30.15 1021 7 11 0.01 0.25
6:53 pm 18:53 Partly Cloudy with Light Rain 60 15.6 57 13.9 90 90 NE 3 6 30.19 1022 10 16 0.02 0.51
7:53 pm 19:53 Clear 60 15.6 57 13.9 90 90 NE 5 7 30.18 1022 10 16 0.00 0.03
8:53 pm 20:53 Clear 60 15.6 57 13.9 90 90 ENE 3 6 30.19 1023 10 16 0.00 0.00
9:53 pm 21:53 Clear 59 15 57 13.9 93 93 E 7 11 30.19 1023 10 16 0.00 0.00
10:53 pm 22:53 Mostly Cloudy 58 14.4 56 13.3 93 93 NE 5 7 30.20 1023 10 16 0.00 0.00
11:53 pm 23:53 Cloudy 59 15 56 13.3 90 90 E 6 9 30.18 1022 10 16 0.00 0.00

Powered by AerisWeather